If you wish to contribute or participate in the discussions about articles you are invited to join SKYbrary as a registered user

 Actions

Arequipa/Rodríguez Ballón International

From SKYbrary Wiki

SPQU
Airport
ICAO: SPQU – IATA: AQP
Summary
Name Arequipa/Rodríguez Ballón International
Region South America and Caribbean
Territory Peru PE.gif
Location Ro Seco, Arequipa
Serving Arequipa
Elevation 2,560.32 m
8,400 ft2,560.32 m
Coordinates 16° 20' 25.00" S, 71° 34' 22.00" W
Runways
Designator Length Width Surface ROPS
9/27 2980 m9,776.903 ft
45 m147.638 ft
ASP /


METAR
Observation SPQU 222000Z 24008KT CAVOK 19/M00 Q1025 NOSIG RMK PP000
Station Arequipa
Date/Time 22 July 2019 20:00:00
Wind direction 240°
Wind speed 08 kts
Lowest cloud amount clouds and visibility OK
Temperature 19°C
Dew point
Humidity 27%
QNH 1025 hPa
Weather condition n/a

Rodríguez Ballón International Airport is an airport serving Peru's second largest city, Arequipa. This airport and Cusco's Alejandro Velasco Astete International Airport are the main air hubs in southern Peru.

Climatology

Cool Desert climate (Köppen climate classification BWk).

Maps

Terrain

Loading map...

Airport Layout

Loading map...


Accidents & Serious Incidents at or in vicinity of SPQU

None on SKYbrary